This is the latest recevied weather packets stored in our database for station/object DD8XX-10. If no packets are shown the sender has not sent any weather packets the latest 1 day(s).
| Time | Temp. | Humidity | Pressure | Rain* | Wind** | Luminosity | Snow |
|---|---|---|---|---|---|---|---|
| 1777724829 | 23.89° C | 25% | 1024.9 hPa | - | - | - | - |
| 1777723929 | 23.89° C | 24% | 1025.1 hPa | - | - | - | - |
| 1777723029 | 23.89° C | 24% | 1025.3 hPa | - | - | - | - |
| 1777722129 | 23.33° C | 23% | 1025.4 hPa | - | - | - | - |
| 1777721229 | 23.89° C | 24% | 1025.7 hPa | - | - | - | - |
| 1777720329 | 23.33° C | 26% | 1025.8 hPa | - | - | - | - |
| 1777719429 | 23.33° C | 23% | 1026 hPa | - | - | - | - |
| 1777718529 | 22.78° C | 24% | 1026.2 hPa | - | - | - | - |
| 1777717628 | 23.33° C | 25% | 1026.5 hPa | - | - | - | - |
| 1777716728 | 22.78° C | 26% | 1026.7 hPa | - | - | - | - |
| 1777715828 | 22.78° C | 25% | 1026.8 hPa | - | - | - | - |
| 1777714928 | 22.78° C | 25% | 1026.9 hPa | - | - | - | - |
| 1777714028 | 22.78° C | 25% | 1027.1 hPa | - | - | - | - |
| 1777713128 | 22.22° C | 25% | 1027.3 hPa | - | - | - | - |
| 1777712228 | 21.11° C | 24% | 1027.4 hPa | - | - | - | - |
| 1777711328 | 20.56° C | 29% | 1027.6 hPa | - | - | - | - |
| 1777710427 | 20.56° C | 32% | 1027.6 hPa | - | - | - | - |
| 1777709527 | 20° C | 32% | 1027.8 hPa | - | - | - | - |
| 1777708627 | 18.89° C | 34% | 1028 hPa | - | - | - | - |
| 1777707727 | 18.33° C | 34% | 1028.3 hPa | - | - | - | - |
| 1777706827 | 17.22° C | 37% | 1028.3 hPa | - | - | - | - |
* Rain since midnight (hover to see other rain measurements)
** Current wind speed in m/s (hover to see current wind gust speed)